Tekamah, NE

9:11 AM CDT on April 29, 2017 (GMT -0500)
Tekamah

Weather History for KTQE - September, 2013

Change the Weather History Date:

Tuesday, September 17, 2013

  Actual Average Record
Temperature  
Mean Temperature 63 °F -  
Max Temperature 71 °F 73 °F 98 °F (1953)
Min Temperature 57 °F 50 °F 34 °F (1980)
Degree Days  
Heating Degree Days 2    
Growing Degree Days 13 (Base 50)    
Moisture  
Dew Point 60 °F    
Average Humidity 91    
Maximum Humidity 100    
Minimum Humidity 83    
Precipitation  
Precipitation 0.24 in - - ()
Sea Level Pressure  
Sea Level Pressure 30.03 in    
Wind  
Wind Speed 9 mph (SE)    
Max Wind Speed 12 mph    
Max Gust Speed 17 mph    
Visibility 6 miles    
Events Rain    
Averages and records for this station are not official NWS values.
T = Trace of Precipitation, MM = Missing Value Source: NWS Daily Summary

Daily Weather History Graph

Daily Weather History Graph

Search for Another Location

Airport or City:

Trip Planner

Search our weather history database for the weather conditions in past years. The results will help you decide how hot, cold, wet, or windy it might be!

Date:

Astronomy

Sep. 17, 2013 Rise Set
Actual Time 7:07 AM CDT 7:30 PM CDT
Civil Twilight 6:39 AM CDT 7:57 PM CDT
Nautical Twilight 6:06 AM CDT 8:30 PM CDT
Astronomical Twilight 5:32 AM CDT 9:04 PM CDT
Moon 6:18 PM CDT (9/17) 5:01 AM CDT (9/17)
Length of Visible Light 13h 18m
Length of Day
12h 22m
Waxing Gibbous, 96% of the Moon is Illuminated
Sep 17
Waxing Gibbous
Sep 19
Full
Sep 26
Last Quarter
Oct 4
New
Oct 11
First Quarter

Hourly Weather History & Observations

Time (CDT) Temp. Dew Point Humidity Pressure Visibility Wind Dir Wind Speed Gust Speed Precip Events Conditions
12:32 AM 57.2 °F 55.4 °F 94% 30.20 in 10.0 mi SE 6.9 mph - 0.02 in Rain Light Rain
12:54 AM 57.9 °F 55.0 °F 90% 30.18 in 9.0 mi SE 8.1 mph - 0.03 in Rain Light Rain
1:09 AM 57.2 °F 55.4 °F 94% 30.20 in 7.0 mi SE 9.2 mph - 0.02 in Rain Light Rain
1:18 AM 57.2 °F 55.4 °F 94% 30.20 in 7.0 mi SE 10.4 mph - 0.03 in Rain Light Rain
1:54 AM 57.9 °F 55.0 °F 90% 30.17 in 8.0 mi SE 8.1 mph - 0.04 in Rain Light Rain
2:54 AM 57.0 °F 55.0 °F 93% 30.16 in 3.0 mi SE 8.1 mph - 0.05 in Rain Rain
3:21 AM 57.2 °F 55.4 °F 94% 30.17 in 4.0 mi SE 8.1 mph - 0.02 in Rain Light Rain
3:54 AM 57.0 °F 55.0 °F 93% 30.14 in 3.0 mi SE 9.2 mph - 0.04 in Rain Light Rain
4:54 AM 57.0 °F 55.0 °F 93% 30.12 in 5.0 mi SE 9.2 mph - 0.05 in Rain Light Rain
5:26 AM 57.2 °F 55.4 °F 94% 30.13 in 7.0 mi SE 9.2 mph - 0.01 in   Overcast
5:54 AM 57.9 °F 55.9 °F 93% 30.10 in 5.0 mi SE 6.9 mph - 0.01 in   Overcast
6:54 AM 57.9 °F 55.9 °F 93% 30.10 in 3.0 mi SE 9.2 mph - N/A   Overcast
7:46 AM 57.2 °F 57.2 °F 100% 30.12 in 3.0 mi SSE 10.4 mph - N/A   Overcast
7:54 AM 57.9 °F 57.0 °F 97% 30.10 in 3.0 mi SSE 9.2 mph - N/A   Overcast
8:14 AM 59.0 °F 57.2 °F 94% 30.11 in 2.0 mi SSE 9.2 mph - N/A   Overcast
8:23 AM 59.0 °F 57.2 °F 94% 30.11 in 1.5 mi SSE 8.1 mph - N/A   Overcast
8:54 AM 59.0 °F 57.9 °F 96% 30.08 in 1.2 mi SSE 8.1 mph - N/A   Overcast
9:24 AM 60.8 °F 57.2 °F 88% 30.10 in 2.0 mi SSE 11.5 mph 17.3 mph N/A   Overcast
9:44 AM 60.8 °F 57.2 °F 88% 30.10 in 3.0 mi SSE 10.4 mph - N/A   Overcast
9:54 AM 61.0 °F 57.9 °F 90% 30.08 in 3.0 mi SSE 10.4 mph - N/A   Overcast
10:10 AM 60.8 °F 59.0 °F 94% 30.10 in 4.0 mi SSE 9.2 mph - N/A   Overcast
10:54 AM 62.1 °F 59.0 °F 90% 30.06 in 6.0 mi SSE 9.2 mph - N/A   Overcast
11:54 AM 63.0 °F 60.1 °F 90% 30.04 in 2.5 mi SSE 11.5 mph - 0.01 in Rain Light Rain
12:06 PM 62.6 °F 60.8 °F 94% 30.06 in 3.0 mi SSE 9.2 mph - 0.01 in Rain Light Rain
12:54 PM 64.0 °F 61.0 °F 90% 30.02 in 8.0 mi SSE 10.4 mph - 0.01 in   Overcast
1:07 PM 64.4 °F 60.8 °F 88% 30.03 in 8.0 mi SSE 8.1 mph - N/A   Overcast
1:54 PM 64.9 °F 62.1 °F 90% 29.99 in 7.0 mi SSE 8.1 mph - N/A   Overcast
2:54 PM 66.9 °F 63.0 °F 87% 29.96 in 10.0 mi SSE 10.4 mph - N/A   Overcast
3:54 PM 66.9 °F 64.0 °F 90% 29.94 in 7.0 mi SSE 10.4 mph - N/A   Overcast
4:11 PM 66.2 °F 64.4 °F 94% 29.95 in 2.5 mi SE 11.5 mph - 0.00 in Rain Light Rain
4:19 PM 66.2 °F 64.4 °F 94% 29.94 in 4.0 mi SE 10.4 mph 17.3 mph 0.00 in   Overcast
4:54 PM 68.0 °F 64.0 °F 87% 29.90 in 5.0 mi SE 9.2 mph - 0.00 in   Overcast
5:34 PM 69.8 °F 64.4 °F 83% 29.91 in 7.0 mi SE 6.9 mph - N/A   Overcast
5:54 PM 69.1 °F 64.9 °F 87% 29.89 in 8.0 mi SE 6.9 mph - N/A   Overcast
6:54 PM 69.1 °F 64.9 °F 87% 29.87 in 10.0 mi Calm Calm - N/A   Overcast
7:42 PM 69.8 °F 64.4 °F 83% 29.89 in 10.0 mi SE 9.2 mph - N/A   Overcast
7:54 PM 69.1 °F 66.0 °F 90% 29.87 in 10.0 mi SE 9.2 mph - N/A   Overcast
8:23 PM 69.8 °F 66.2 °F 88% 29.89 in 10.0 mi SE 5.8 mph - N/A   Overcast
8:54 PM 69.1 °F 66.0 °F 90% 29.86 in 10.0 mi SE 9.2 mph - N/A   Overcast
9:54 PM 68.0 °F 66.0 °F 93% 29.86 in 7.0 mi SE 10.4 mph - N/A   Scattered Clouds
10:54 PM 69.1 °F 66.0 °F 90% 29.86 in 6.0 mi SE 9.2 mph - N/A   Partly Cloudy
11:25 PM 69.8 °F 66.2 °F 88% 29.88 in 6.0 mi SSE 8.1 mph - N/A   Mostly Cloudy
11:54 PM 70.0 °F 66.0 °F 87% 29.86 in 7.0 mi SSE 9.2 mph - N/A   Overcast